星链-34194 (STARLINK-34194)

导读 | 豆包AI

STARLINK-34194是美国于2025年5月28日发射的星链系列卫星,归属SpaceX星链星座网络。该卫星是星链低轨互联网星座扩容的组成单元,依托低轨道部署优势,可为全球偏远地区、海洋空域等信号薄弱区域提供低延迟高速卫星互联网接入服务,进一步完善星链星座的全球覆盖能力与服务稳定性。

基本信息
目录编号:
64179
目录名称:
STARLINK-34194
国际标识:
2025-113K
轨道中心:
EARTH
卫星名称:
星链-34194
卫星全名:
星链-34194 (STARLINK-34194)
卫星状态:
在轨 (已飞行290 天)
发射日期:
2025-05-28 UTC
国别 :
美国 (US)
星等 :
--
轨道信息
数据来源 国际轨道数据
星历时间: 2026-03-14T14:44:14+0800
10小时前
查看轨道信息
半长轴: 6853.311km
偏心率: 0.0001413
轨道倾角: 53.159°
近地点辐角 86.282°
升交点赤经 69.409°
平近点角 273.834°
近地点: 474.205km
远地点: 476.143km
周期: 94.104分钟
每日圈数: 15.302138
详细信息
固有亮度:
5
最大亮度:
2.5
卫星平台:
Starlink V1.0
覆盖范围:
全球
运营商:
太空探索技术公司
运营商所在国:
美国
制造商(研发单位):
太空探索技术公司
制造商所在国:
美国
使用方式:
暂无
卫星简介
Starlink 计划是 SpaceX 推出的全球卫星互联网项目,通过发射低轨道卫星,为全球尤其是偏远地区提供高速、低延迟的互联网服务。自 2019 年起,Starlink 已部署数千颗卫星,旨在缩小全球数字鸿沟,推动互联网普及。该项目还为军事、航空等行业提供通信支持,带来广泛经济效益。
2D轨道图
3D轨道图
轨道高度分析图
轨道倾角分析图
轨道综合分析图
查看轨道综合分析图